"Pseudo-MPEC" for C5ZA6J2

Created 2021 Sep 15 11:07:09 UT using Find_Orb

Click here for an explanation of pseudo-MPECs

 
 Astrometry: 
     C5ZA6J2 HC2021 09 14.36618102 05 23.52 -17 52 54.8    ~9E9b       VNEOCPG96
     C5ZA6J2 HC2021 09 14.37138002 05 41.58 -17 53 55.9    ~9E9b 19.10GVNEOCPG96
     C5ZA6J2 HC2021 09 14.37658102 05 59.63 -17 54 57.2    ~9E9b 19.49GVNEOCPG96
     C5ZA6J2 HC2021 09 14.38178402 06 17.56 -17 55 58.4    ~9E9b 20.39GVNEOCPG96
     C5ZA6J2 mC2021 09 14.43852602 09 35.86 -18 06 57.4    ~9EAq 19.24GVNEOCPG96
     C5ZA6J2 mC2021 09 14.43870602 09 36.49 -18 06 59.4    ~9EAq 19.46GVNEOCPG96
     C5ZA6J2 mC2021 09 14.43888802 09 37.14 -18 07 00.9    ~9EAq 19.29GVNEOCPG96
     C5ZA6J2 mC2021 09 14.43907302 09 37.77 -18 07 03.6    ~9EAq 19.60GVNEOCPG96
     C5ZA6J2 KC2021 09 14.45155302 10 21.61 -18 09 24.8    ~9EBM 18.97GVNEOCP703
     C5ZA6J2 KC2021 09 14.45250602 10 24.99 -18 09 36.3    ~9EBM 19.28GVNEOCP703
     C5ZA6J2 KC2021 09 14.45346302 10 28.40 -18 09 46.9    ~9EBM 19.25GVNEOCP703
     C5ZA6J2 bC2021 09 15BS%HK%y`rY\+42/I0Q7Jr*8xd2TNcE%+R+-Xd-6@Tv.A+WQ\H!/,L01
     C5ZA6J2 bC2021 09 15n-p;yi`XNmAstrometry=6K'wi=x:redacted;K?Eclick\p[_rDL01
     C5ZA6J2 bC2021 09 15k@RFGojbMrUk.L+hereIjG^'f)7?#ccnfor)od)=YM%-F4R.:$n=L01
     C5ZA6J2 bC2021 09 15Ipe-explanationx+kpBds+MA4w,rneEMLkaXTU7Hr`]GpilfeV9L01
     C5ZA6J2 bC2021 09 15q^[_[AW)`#V3H=EVL\$DBw(DmK64jmMa+b!f)XID5%W8vVnH9sl5L01

Station data:
(703) Catalina Sky Survey  (N32.417006 W110.732640)  US/Arizona.  Observers
   T. A. Pruyne, B. M. Africano, E. J. Christensen, G. A. Farneth, D. C.
   Fuls, A. R. Gibbs, A. D. Grauer, H. Gröller, J. A. Johnson, R. A.
   Kowalski, S. M. Larson, G. J. Leonard, D. Rankin, R. L. Seaman, F. C.
   Shelly. 0.68 m Schmidt + 10K CCD.
(G96) Mt. Lemmon Survey  (N32.442754 W110.788720)  US/Arizona.  Observers T.
   A. Pruyne, B. M. Africano, E. J. Christensen, G. A. Farneth, D. C. Fuls,
   A. R. Gibbs, A. D. Grauer, H. Gröller, J. A. Johnson, R. A. Kowalski, S.
   M. Larson, G. J. Leonard, D. Rankin, R. L. Seaman, F. C. Shelly. 1.5-m
   reflector + 10K CCD.
(L01) Višnjan Observatory, Tičan  (N45.290900 E13.749300)  Croatia.
   Observers K. Korlević, E. Pettarin. Measurer E. Pettarin. 1.0-m f/2.9
   reflector + CCD.

Orbital elements:  C5ZA6J2
   Perihelion 2021 Oct 20.524656 +/- 0.0331378 TT = 12:35:30 (JD 2459508.024656)
Epoch 2021 Sep 15.0 TT = JDT 2459472.5   Earth MOID: 0.0175   AutoNEOCP
M 346.41910431 +/- 0.2296465        (J2000 ecliptic)
n   0.38229491 +/- 0.00631578       Peri.  231.86131 +/- 0.1470385
a   1.88019848 +/- 0.0207077        Node   166.52833 +/- 0.0183239
e   0.5125007 +/- 0.00596954        Incl.    6.49805 +/- 0.0431754
P   2.58/941.66d           H 26.3   G  0.15   U  9.3  
q 0.91659543 +/- 0.00115959    Q 2.84380153 +/- 0.0429914
From 16 observations 2021 Sept. 14-15 (16.2 hr); mean residual 0".42
Residuals in arcseconds: 
210914 G96  .26+  .44-    210914 G96  .29+  .28+    210915 L01  .25+  .27+    
210914 G96  .58+  .04+    210914 G96  .01+  .30-    210915 L01  .43-  .15-    
210914 G96  .48+  .19+    210914 703  .46-  .49+    210915 L01  .36-  .00     
210914 G96  1.6-  .31+    210914 703  .14-  .20-    210915 L01  .04+  .06-    
210914 G96  .17+  .35-    210914 703  .40+  .05+    
210914 G96  .14+  .30-    210915 L01  .51+  .06-    

Ephemerides (geocentric):
Date (UTC) HH   RA              Dec         delta   r     elong  mag " sig PA
---- -- -- --  -------------   -----------  ------ ------ -----  --- ---- ---
2021 09 15 11  03 16 11.378   -20 43 34.90  .02248 1.0179 122.8 20.2 19.6 108
2021 09 15 12  03 19 01.793   -20 48 17.74  .02248 1.0177 122.2 20.2 22.1 106
2021 09 15 13  03 21 52.361   -20 52 49.98  .02248 1.0175 121.5 20.2 24.6 105
2021 09 15 14  03 24 43.029   -20 57 11.52  .02249 1.0173 120.9 20.2 27.4 104
2021 09 15 15  03 27 33.746   -21 01 22.24  .02250 1.0171 120.3 20.2 30.2 103
2021 09 15 16  03 30 24.457   -21 05 22.07  .02251 1.0168 119.6 20.3 33.1 102
2021 09 15 17  03 33 15.112   -21 09 10.92  .02252 1.0166 119.0 20.3 36.2 101
2021 09 15 18  03 36 05.657   -21 12 48.73  .02254 1.0164 118.3 20.3 39.4 101
2021 09 15 19  03 38 56.041   -21 16 15.45  .02256 1.0162 117.7 20.3 42.7 100
2021 09 15 20  03 41 46.212   -21 19 31.05  .02258 1.0160 117.1 20.3 46.1  99
2021 09 15 21  03 44 36.118   -21 22 35.51  .02261 1.0157 116.4 20.4 49.6  99
2021 09 15 22  03 47 25.708   -21 25 28.83  .02264 1.0155 115.8 20.4 53.3  98
2021 09 15 23  03 50 14.932   -21 28 11.00  .02267 1.0153 115.2 20.4 57.0  98
2021 09 16 00  03 53 03.741   -21 30 42.06  .02271 1.0151 114.6 20.4 60.8  97
2021 09 16 01  03 55 52.084   -21 33 02.04  .02275 1.0149 113.9 20.4 64.7  97
2021 09 16 02  03 58 39.915   -21 35 10.99  .02279 1.0146 113.3 20.5 68.7  96
2021 09 16 03  04 01 27.186   -21 37 08.97  .02283 1.0144 112.7 20.5 72.8  96
2021 09 16 04  04 04 13.851   -21 38 56.06  .02288 1.0142 112.1 20.5 76.9  96
2021 09 16 05  04 06 59.864   -21 40 32.33  .02293 1.0140 111.5 20.5 81.1  95
2021 09 16 06  04 09 45.182   -21 41 57.89  .02298 1.0138 110.9 20.6 85.4  95
2021 09 16 07  04 12 29.761   -21 43 12.86  .02304 1.0136 110.2 20.6 89.8  94
2021 09 16 08  04 15 13.560   -21 44 17.34  .02310 1.0133 109.6 20.6 94.2  94
2021 09 16 09  04 17 56.539   -21 45 11.47  .02316 1.0131 109.0 20.6 98.6  94
2021 09 16 10  04 20 38.658   -21 45 55.39  .02323 1.0129 108.4 20.7  103  93
2021 09 16 11  04 23 19.880   -21 46 29.25  .02329 1.0127 107.9 20.7  108  93
2021 09 16 12  04 26 00.169   -21 46 53.20  .02336 1.0125 107.3 20.7  112  93
2021 09 16 13  04 28 39.489   -21 47 07.42  .02344 1.0123 106.7 20.7  117  92
2021 09 16 14  04 31 17.807   -21 47 12.08  .02351 1.0120 106.1 20.8  122  92
2021 09 16 15  04 33 55.092   -21 47 07.36  .02359 1.0118 105.5 20.8  126  92
2021 09 16 16  04 36 31.313   -21 46 53.45  .02367 1.0116 104.9 20.8  131  91
2021 09 16 17  04 39 06.440   -21 46 30.53  .02375 1.0114 104.4 20.8  136  91
2021 09 16 18  04 41 40.448   -21 45 58.82  .02384 1.0112 103.8 20.9  141  91
2021 09 16 19  04 44 13.309   -21 45 18.50  .02393 1.0110 103.2 20.9  145  90
2021 09 16 20  04 46 45.000   -21 44 29.80  .02402 1.0108 102.7 20.9  150  90
2021 09 16 21  04 49 15.497   -21 43 32.92  .02411 1.0105 102.1 20.9  155  90
2021 09 16 22  04 51 44.780   -21 42 28.07  .02421 1.0103 101.6 21.0  160  90
2021 09 16 23  04 54 12.828   -21 41 15.47  .02430 1.0101 101.0 21.0  165  89
2021 09 17 00  04 56 39.624   -21 39 55.34  .02441 1.0099 100.5 21.0  169  89
2021 09 17 01  04 59 05.149   -21 38 27.90  .02451 1.0097 100.0 21.0  174  89
2021 09 17 02  05 01 29.390   -21 36 53.37  .02461 1.0095  99.4 21.1  179  89
2021 09 17 03  05 03 52.331   -21 35 11.97  .02472 1.0093  98.9 21.1  184  88
2021 09 17 04  05 06 13.959   -21 33 23.93  .02483 1.0090  98.4 21.1  189  88
2021 09 17 05  05 08 34.265   -21 31 29.46  .02494 1.0088  97.9 21.2  193  88
2021 09 17 06  05 10 53.236   -21 29 28.78  .02506 1.0086  97.4 21.2  198  88
2021 09 17 07  05 13 10.866   -21 27 22.12  .02517 1.0084  96.9 21.2  203  87
2021 09 17 08  05 15 27.146   -21 25 09.70  .02529 1.0082  96.4 21.2  207  87
2021 09 17 09  05 17 42.069   -21 22 51.72  .02541 1.0080  95.9 21.3  212  87
2021 09 17 10  05 19 55.631   -21 20 28.41  .02554 1.0078  95.4 21.3  217  87